Location: Lombard
(41.8800°N, 88.0080°W)
Time: 19:44:55
(UTC-06:00)

ISS - Visible Passes

Search period start: 05 December 2021 00:00
Search period end: 15 December 2021 00:00
Orbit: 417 x 422 km, 51.6° (Epoch: 05 December)

Date Brightness Start Highest point End Pass type
(mag) Time Alt. Az. Time Alt. Az. Time Alt. Az.
05 Dec -3.9 18:01:08 10° NW 18:04:32 89° NE 18:05:07 58° ESE visible
06 Dec -3.6 17:13:46 10° NW 17:17:06 55° NNE 17:20:27 10° ESE visible
06 Dec -1.1 18:51:12 10° W 18:53:31 19° SW 18:53:31 19° SW visible
07 Dec -1.9 18:03:22 10° WNW 18:06:24 31° SW 18:09:18 11° SSE visible
08 Dec -2.9 17:15:47 10° WNW 17:19:05 53° SW 17:22:24 10° SE visible
09 Dec -0.3 18:07:04 10° WSW 18:08:02 11° SW 18:09:00 10° SW visible
10 Dec -0.7 17:18:24 10° W 17:20:49 18° SW 17:23:14 10° S visible
